This is the latest recevied weather packets stored in our database for station/object W5CRT. If no packets are shown the sender has not sent any weather packets the latest 10 day(s).
| Time | Temp. | Humidity | Pressure | Rain* | Wind** | Luminosity | Snow |
|---|---|---|---|---|---|---|---|
| 1777566123 | 16.67° C | 80% | 1014 hPa | 0 mm | - | 153 W/m² | - |
| 1777565818 | 16.67° C | 79% | 1014.6 hPa | 0 mm | - | 78 W/m² | - |
| 1777565515 | 16.67° C | 80% | 1014.9 hPa | 0 mm | - | 55 W/m² | - |
| 1777565211 | 16.67° C | 79% | 1014.9 hPa | 0 mm | - | 53 W/m² | - |
| 1777564907 | 17.22° C | 78% | 1014.2 hPa | 0 mm | - | 59 W/m² | - |
| 1777564602 | 17.22° C | 79% | 1013.9 hPa | 0 mm | - | 115 W/m² | - |
| 1777564298 | 17.22° C | 80% | 1013.9 hPa | 0 mm | - | 154 W/m² | - |
| 1777563995 | 17.22° C | 78% | 1014 hPa | 0 mm | - | 126 W/m² | - |
| 1777563691 | 17.22° C | 78% | 1013.7 hPa | 0 mm | - | 197 W/m² | - |
| 1777563387 | 17.78° C | 79% | 1013.5 hPa | 0 mm | - | 273 W/m² | - |
| 1777563082 | 17.22° C | 79% | 1013.2 hPa | 0 mm | - | 227 W/m² | - |
| 1777562778 | 17.78° C | 79% | 1013.1 hPa | 0 mm | - | 219 W/m² | - |
| 1777562476 | 17.78° C | 79% | 1013.4 hPa | 0 mm | - | 193 W/m² | - |
| 1777562173 | 17.78° C | 79% | 1013.2 hPa | 0 mm | - | 187 W/m² | - |
| 1777561871 | 17.78° C | 79% | 1012.9 hPa | 0 mm | - | 241 W/m² | - |
| 1777561568 | 17.78° C | 80% | 1012.9 hPa | 0 mm | - | 257 W/m² | - |
| 1777561263 | 17.78° C | 80% | 1012.6 hPa | 0 mm | - | 270 W/m² | - |
| 1777560963 | 17.78° C | 82% | 1012.7 hPa | 0 mm | - | 347 W/m² | - |
| 1777560659 | 17.22° C | 81% | 1012.5 hPa | 0 mm | - | 301 W/m² | - |
| 1777560357 | 17.22° C | 82% | 1012.6 hPa | 0 mm | - | 238 W/m² | - |
| 1777560055 | 17.22° C | 83% | 1012.5 hPa | 0 mm | - | 249 W/m² | - |
| 1777559750 | 17.22° C | 83% | 1012.4 hPa | 0 mm | - | 234 W/m² | - |
| 1777559447 | 16.67° C | 84% | 1012.5 hPa | 0 mm | - | 226 W/m² | - |
| 1777559144 | 16.67° C | 84% | 1012.4 hPa | 0 mm | - | 208 W/m² | - |
| 1777558844 | 16.67° C | 84% | 1012.5 hPa | 0 mm | - | 195 W/m² | - |
* Rain latest hour (hover to see other rain measurements)
** Current wind speed in m/s (hover to see current wind gust speed)